Weather History for KSPW - January, 2013

Change the Weather History Date:

Sunday, January 6, 2013

  Actual Average Record
Temperature  
Mean Temperature 14 °F -  
Max Temperature 23 °F 22 °F 46 °F (2012)
Min Temperature 6 °F 3 °F -24 °F (1988)
Degree Days  
Heating Degree Days 50    
Moisture  
Dew Point 9 °F    
Average Humidity 80    
Maximum Humidity 87    
Minimum Humidity 74    
Precipitation  
Precipitation 0.00 in - - ()
Sea Level Pressure  
Sea Level Pressure 30.24 in    
Wind  
Wind Speed 10 mph (WSW)    
Max Wind Speed 14 mph    
Max Gust Speed -    
Visibility 10 miles    
Events      
Averages and records for this station are not official NWS values.
T = Trace of Precipitation, MM = Missing Value Source: NWS Daily Summary

Daily Weather History Graph

Daily Weather History Graph

Search for Another Location

Airport or City:

Trip Planner

Search our weather history database for the weather conditions in past years. The results will help you decide how hot, cold, wet, or windy it might be!

Date:

Astronomy

Jan. 06, 2013 Rise Set
Actual Time 7:52 AM CST 5:01 PM CST
Civil Twilight 7:20 AM CST 5:33 PM CST
Nautical Twilight 6:44 AM CST 6:09 PM CST
Astronomical Twilight 6:10 AM CST 6:43 PM CST
Moon 2:04 AM CST (1/6) 12:32 PM CST (1/6)
Length of Visible Light 10h 13m
Length of Day
9h 08m
Waning Crescent, 33% of the Moon is Illuminated
Jan 6
Waning Crescent
Jan 11
New
Jan 18
First Quarter
Jan 26
Full
Feb 3
Last Quarter

Hourly Weather History & Observations

Time (CST) Temp. Windchill Dew Point Humidity Pressure Visibility Wind Dir Wind Speed Gust Speed Precip Events Conditions
12:53 AM 12.9 °F -2.2 °F 7.0 °F 77% 30.19 in 10.0 mi WNW 13.8 mph - N/A   Clear
1:53 AM 10.9 °F -2.6 °F 5.0 °F 77% 30.21 in 10.0 mi WNW 10.4 mph - N/A   Clear
2:53 AM 10.0 °F -3.7 °F 3.9 °F 76% 30.22 in 10.0 mi WNW 10.4 mph - N/A   Clear
3:53 AM 8.1 °F -4.3 °F 3.0 °F 80% 30.23 in 10.0 mi WNW 8.1 mph - N/A   Clear
4:53 AM 8.1 °F -6.2 °F 3.9 °F 83% 30.24 in 10.0 mi WNW 10.4 mph - N/A   Clear
5:53 AM 8.1 °F -4.3 °F 3.9 °F 83% 30.25 in 10.0 mi WNW 8.1 mph - N/A   Mostly Cloudy
6:53 AM 9.0 °F -0.9 °F 5.0 °F 84% 30.27 in 10.0 mi WNW 5.8 mph - N/A   Overcast
7:53 AM 6.1 °F -5.6 °F 3.0 °F 87% 30.29 in 10.0 mi West 6.9 mph - N/A   Clear
8:53 AM 6.1 °F -5.6 °F 3.0 °F 87% 30.30 in 9.0 mi WSW 6.9 mph - N/A   Clear
9:53 AM 10.9 °F 2.9 °F 5.0 °F 77% 30.32 in 10.0 mi West 4.6 mph - N/A   Clear
10:53 AM 14.0 °F 6.5 °F 9.0 °F 80% 30.32 in 10.0 mi West 4.6 mph - N/A   Clear
11:53 AM 16.0 °F 7.4 °F 10.0 °F 77% 30.31 in 10.0 mi WSW 5.8 mph - N/A   Clear
12:53 PM 19.0 °F 9.0 °F 12.0 °F 74% 30.29 in 10.0 mi West 8.1 mph - N/A   Clear
1:53 PM 19.9 °F 11.1 °F 14.0 °F 78% 30.27 in 10.0 mi SW 6.9 mph - N/A   Clear
3:53 PM 23.0 °F 13.9 °F 16.0 °F 74% 30.26 in 10.0 mi SSW 8.1 mph - N/A   Clear
4:53 PM 19.0 °F 9.0 °F 12.9 °F 77% 30.26 in 10.0 mi South 8.1 mph - N/A   Clear
5:53 PM 16.0 °F 5.3 °F 10.9 °F 81% 30.24 in 10.0 mi South 8.1 mph - N/A   Clear
6:53 PM 17.1 °F 5.8 °F 12.0 °F 81% 30.22 in 10.0 mi SSE 9.2 mph - N/A   Clear
7:53 PM 18.0 °F 5.4 °F 12.0 °F 78% 30.20 in 10.0 mi South 11.5 mph - N/A   Clear
8:53 PM 17.1 °F 3.6 °F 12.0 °F 81% 30.17 in 10.0 mi South 12.7 mph - N/A   Clear
9:53 PM 17.1 °F 3.6 °F 12.0 °F 81% 30.15 in 9.0 mi South 12.7 mph - N/A   Clear
10:53 PM 17.1 °F 5.8 °F 12.9 °F 84% 30.14 in 10.0 mi South 9.2 mph - N/A   Clear
11:53 PM 19.0 °F 7.5 °F 14.0 °F 81% 30.09 in 10.0 mi South 10.4 mph - N/A   Clear